Location: Astronomy Adventures Observing Site
(35.3995°N, 106.1279°W)
Time: 18:54:08
(UTC-06:00)

Envisat - Pass Details

Date: 24 January 2022
Orbit: 764 x 765 km, 98.2° (Epoch: 27 May)

Event Time Altitude Azimuth Distance (km) Brightness Sun altitude
Rises 05:16:34 0° 6° (N) 3,234 6.2 -22.9°
Reaches altitude 10° 05:18:55 10° 2° (N) 2,305 5.4 -22.4°
Maximum altitude 05:23:51 54° 286° (WNW) 921 3.0 -21.4°
Drops below altitude 10° 05:28:46 10° 210° (SSW) 2,292 5.3 -20.5°
Sets 05:31:06 0° 206° (SSW) 3,214 6.1 -20.0°
